This is the latest recevied weather packets stored in our database for station/object SP1BMW-13. If no packets are shown the sender has not sent any weather packets the latest 10 day(s).
| Time | Temp. | Humidity | Pressure | Rain* | Wind** | Luminosity | Snow |
|---|---|---|---|---|---|---|---|
| 1788015332 | 25° C | 46% | 1009.5 hPa | 0 mm | 0 m/s | 117 W/m² | - |
| 1788015272 | 25° C | 45% | 1009.4 hPa | 0 mm | 0.45 m/s, 256° | 119 W/m² | - |
| 1788015214 | 25° C | 45% | 1009.5 hPa | 0 mm | 0.89 m/s, 265° | 119 W/m² | - |
| 1788015152 | 25° C | 44% | 1009.3 hPa | 0 mm | 1.34 m/s, 170° | 121 W/m² | - |
| 1788015092 | 25.56° C | 44% | 1009.4 hPa | 0 mm | 0 m/s | 128 W/m² | - |
| 1788015032 | 25.56° C | 43% | 1009.5 hPa | 0 mm | 0.45 m/s, 122° | 133 W/m² | - |
| 1788014973 | 25.56° C | 43% | 1009.6 hPa | 0 mm | 0.45 m/s, 224° | 142 W/m² | - |
| 1788014912 | 26.11° C | 42% | 1009.4 hPa | 0 mm | 3.13 m/s, 229° | 151 W/m² | - |
| 1788014853 | 26.11° C | 42% | 1009.3 hPa | 0 mm | 1.79 m/s, 335° | 170 W/m² | - |
| 1788014793 | 26.11° C | 42% | 1009.6 hPa | 0 mm | 2.24 m/s, 158° | 267 W/m² | - |
| 1788014732 | 26.67° C | 42% | 1009.4 hPa | 0 mm | 0.89 m/s, 9° | 192 W/m² | - |
| 1788014672 | 26.67° C | 41% | 1009.3 hPa | 0 mm | 1.79 m/s, 298° | 178 W/m² | - |
| 1788014612 | 26.67° C | 41% | 1009.2 hPa | 0 mm | 0.45 m/s, 289° | 238 W/m² | - |
| 1788014552 | 26.67° C | 41% | 1009.3 hPa | 0 mm | 0.89 m/s, 297° | 285 W/m² | - |
| 1788014492 | 26.67° C | 42% | 1009.4 hPa | 0 mm | 0.89 m/s, 250° | 266 W/m² | - |
| 1788014432 | 26.67° C | 41% | 1009.2 hPa | 0 mm | 1.34 m/s, 250° | 373 W/m² | - |
| 1788014374 | 26.67° C | 42% | 1009.1 hPa | 0 mm | 0.89 m/s, 294° | 440 W/m² | - |
| 1788014312 | 26.11° C | 40% | 1009.3 hPa | 0 mm | 1.79 m/s, 146° | 455 W/m² | - |
| 1788014253 | 26.11° C | 42% | 1009.4 hPa | 0 mm | 0.45 m/s, 150° | 427 W/m² | - |
| 1788014192 | 26.11° C | 42% | 1009.3 hPa | 0 mm | 1.34 m/s, 1° | 450 W/m² | - |
| 1788014132 | 26.11° C | 41% | 1009.5 hPa | 0 mm | 1.79 m/s, 279° | 466 W/m² | - |
| 1788014073 | 25.56° C | 41% | 1009.4 hPa | 0 mm | 1.79 m/s, 282° | 441 W/m² | - |
| 1788014012 | 25.56° C | 42% | 1009.2 hPa | 0 mm | 0.45 m/s, 337° | 481 W/m² | - |
| 1788013953 | 25.56° C | 41% | 1009.3 hPa | 0 mm | 0.89 m/s, 22° | 487 W/m² | - |
| 1788013892 | 25.56° C | 42% | 1009.5 hPa | 0 mm | 0.89 m/s, 295° | 449 W/m² | - |
* Rain latest hour (hover to see other rain measurements)
** Current wind speed in m/s (hover to see current wind gust speed)